Location: �quirre
(50.4736°N, 2.2351°E)
Time: 05:18:38
(UTC+00:00)

Cosmos 1437 - Pass Details

Date: 07 August 2020
Orbit: 368 x 371 km, 81.2° (Epoch: 19 September)

Event Time Altitude Azimuth Distance (km) Brightness Sun altitude
Rises 01:42:54 0° 336° (NNW) 2,236 7.0 -19.3°
Reaches altitude 10° 01:45:06 10° 322° (NW) 1,379 5.7 -19.1°
Enters shadow 01:46:32 19° 298° (WNW) 954 4.5 -19.0°
